Location: Ariel
(45.9570°N, 122.5700°W)
Time: 15:05:04
(UTC-07:00)

Altair - Pass Details

Date: 23 July 2019
Orbit: 1501 x 1683 km, 47.2° (Epoch: 24 August)

Event Time Altitude Azimuth Distance (km) Brightness Sun altitude
Rises 14:33:44 0° 262° (W) 4,639 10.3 59.6°
Reaches altitude 10° 14:36:45 10° 264° (W) 3,653 10.0 59.3°
Maximum altitude 14:45:58 84° 353° (N) 1,517 8.6 58.2°
Drops below altitude 10° 14:55:18 10° 83° (E) 3,704 9.4 57.1°
Sets 14:58:23 0° 84° (E) 4,707 9.8 56.7°
